N8ASV Weather Reports


time (UTC)temp
C
wind
direction
speed
KPH
gust
KPH
rain 1hr
cm
rain 24hr
cm
rain mn
cm
humidity
%
barometer
mb
20260505102017 13 0.0 1.6 0.20 0.20 0.20 88 1006.6
20260505101016 14 0.0 0.0 0.20 0.20 0.20 87 1007.0
20260505100017 14 0.0 0.0 0.18 0.18 0.18 86 1007.4
20260505095017 14 0.0 1.6 0.18 0.18 0.18 85 1007.6
20260505094016 15 338 1.6 6.4 0.08 0.08 0.08 84 1007.6
20260505093016 15 0 1.6 6.4 0.00 0.00 0.00 82 1007.5
20260505092017 15 315 1.6 6.4 0.00 0.00 0.00 80 1007.2
20260505091016 16 315 1.6 9.7 0.00 0.00 0.00 78 1007.1
20260505090016 16 0.0 3.2 0.00 0.00 0.00 76 1006.6
20260505085016 15 158 1.6 6.4 0.00 0.00 0.00 77 1005.9
20260505084016 15 0.0 0.0 0.00 0.00 0.00 80 1005.9
20260505083016 15 0.0 0.0 0.00 0.00 0.00 79 1005.5
20260505082016 15 0.0 0.0 0.00 0.00 0.00 79 1005.4
20260505081036 15 0.0 0.0 0.00 0.00 0.00 79 1004.9
20260505080016 15 0.0 0.0 0.00 0.00 0.00 78 1004.7
20260505075016 15 0.0 0.0 0.00 0.00 0.00 77 1004.9
20260505074016 16 0.0 0.0 0.00 0.00 0.00 75 1004.9
20260505073016 16 0.0 0.0 0.00 0.00 0.00 74 1004.9
20260505072016 16 0.0 0.0 0.00 0.00 0.00 73 1004.8
20260505071016 17 0.0 0.0 0.00 0.00 0.00 70 1004.6
20260505070016 17 0.0 0.0 0.00 0.00 0.00 68 1004.7
20260505065016 18 0.0 1.6 0.00 0.00 0.00 67 1004.7
20260505064016 18 0.0 3.2 0.00 0.00 0.00 63 1004.6
20260505063016 18 203 1.6 4.8 0.00 0.00 0.00 63 1004.4
20260505062016 18 203 3.2 6.4 0.00 0.00 0.00 62 1004.4
20260505061016 18 225 3.2 8.0 0.00 0.00 0.00 61 1004.4
20260505060016 19 225 3.2 6.4 0.00 0.00 0.00 61 1004.3
20260505055016 18 225 4.8 9.7 0.00 0.00 0.00 61 1004.1
20260505054016 18 248 3.2 6.4 0.00 0.00 0.00 62 1003.8
20260505053015 18 203 3.2 6.4 0.00 0.00 0.00 62 1003.8
20260505052016 19 203 1.6 6.4 0.00 0.00 0.00 62 1003.7
20260505051015 19 180 3.2 11.3 0.00 0.00 0.00 62 1003.6
20260505050156 19 203 4.8 9.7 0.00 0.00 0.00 62 1003.7
20260505041057 19 203 1.6 4.8 0.00 0.00 0.00 63 1004.3
20260505040037 19 180 3.2 4.8 0.00 0.00 0.00 62 1004.3
20260505035017 19 225 1.6 6.4 0.00 0.00 0.00 62 1004.3
20260505034017 19 225 3.2 8.0 0.00 0.00 0.00 62 1004.3
20260505033017 19 180 1.6 4.8 0.00 0.00 0.00 62 1004.4
20260505032017 19 225 1.6 6.4 0.00 0.00 0.00 62 1004.3
20260505031017 19 180 1.6 8.0 0.00 0.00 0.00 63 1004.3
20260505030017 18 203 1.6 4.8 0.00 0.00 0.00 65 1004.3
20260505025017 17 0.0 6.4 0.00 0.00 0.00 68 1004.1
20260505024017 17 0.0 0.0 0.00 0.00 0.00 70 1004.0
20260505023037 18 0.0 0.0 0.00 0.00 0.00 69 1003.8
20260505022017 18 0.0 0.0 0.00 0.00 0.00 68 1003.8
20260505021037 18 0.0 0.0 0.00 0.00 0.00 68 1003.6
20260505020017 18 0.0 0.0 0.00 0.00 0.00 64 1003.4
20260505015016 19 0.0 3.2 0.00 0.00 0.00 62 1003.2
20260505014016 20 0.0 0.0 0.00 0.00 0.00 61 1003.0
20260505013017 21 203 1.6 6.4 0.00 0.00 0.00 58 1003.0
20260505012016 21 248 1.6 6.4 0.00 0.00 0.00 56 1002.8
20260505011016 21 248 1.6 4.8 0.00 0.00 0.00 56 1002.8
20260505010016 21 180 1.6 4.8 0.00 0.00 0.00 56 1002.9
20260505005016 21 180 1.6 4.8 0.00 0.00 0.00 56 1003.0
20260505004016 21 203 1.6 3.2 0.00 0.00 0.00 56 1003.0
20260505003016 22 248 3.2 11.3 0.00 0.00 0.00 55 1003.0
20260505002016 22 248 1.6 4.8 0.00 0.00 0.00 55 1002.9
20260505001016 22 203 3.2 9.7 0.00 0.00 0.00 53 1002.9
20260505000016 22 225 3.2 6.4 0.00 0.00 0.00 51 1003.1
20260504235016 23 225 3.2 16.1 0.00 0.00 0.00 50 1003.1
20260504234016 23 248 3.2 9.7 0.00 0.00 0.00 50 1003.3
20260504233016 23 225 3.2 6.4 0.00 0.00 0.00 48 1003.5
20260504232016 23 248 4.8 9.7 0.00 0.00 0.00 48 1003.7
20260504231016 23 248 8.0 14.5 0.00 0.00 0.00 46 1003.9
20260504230016 24 225 3.2 6.4 0.00 0.00 0.00 48 1003.9
20260504225016 24 225 6.4 12.9 0.00 0.00 0.00 45 1003.8
20260504224016 24 248 6.4 12.9 0.00 0.00 0.00 44 1003.9
20260504223016 23 225 6.4 16.1 0.00 0.00 0.00 48 1003.9
20260504222016 23 180 3.2 6.4 0.00 0.00 0.00 56 1004.1
20260504221016 23 158 1.6 8.0 0.00 0.00 0.00 56 1004.1
20260504220036 23 180 3.2 8.0 0.00 0.00 0.00 54 1004.2
20260504215016 23 180 3.2 9.7 0.00 0.00 0.00 55 1004.0
20260504214036 23 225 3.2 4.8 0.00 0.00 0.00 54 1004.0
20260504213015 23 225 3.2 6.4 0.00 0.00 0.00 50 1004.4
20260504212036 23 225 1.6 3.2 0.00 0.00 0.00 53 1004.7
20260504211036 23 225 1.6 4.8 0.00 0.00 0.00 51 1004.9
20260504210517 23 0.0 3.2 0.00 0.00 0.00 50 1004.9
20260504205516 23 248 1.6 6.4 0.00 0.00 0.00 50 1005.1
20260504204516 23 248 4.8 8.0 0.00 0.00 0.00 50 1005.2
20260504203516 23 248 3.2 8.0 0.00 0.00 0.00 50 1005.2
20260504202517 23 270 4.8 9.7 0.00 0.00 0.00 51 1005.3
20260504201517 23 248 4.8 11.3 0.00 0.00 0.00 54 1005.6
20260504200516 23 225 4.8 11.3 0.00 0.00 0.00 54 1005.6
20260504195516 23 248 4.8 9.7 0.00 0.00 0.00 54 1005.8
20260504194517 23 225 4.8 9.7 0.00 0.00 0.00 54 1005.9
20260504193516 23 248 3.2 6.4 0.00 0.00 0.00 58 1005.9
20260504192516 22 203 6.4 17.7 0.00 0.00 0.00 57 1006.0
20260504191516 21 225 3.2 4.8 0.00 0.00 0.00 63 1006.3
20260504190516 20 248 1.6 6.4 0.00 0.00 0.00 65 1006.6
20260504185516 20 248 1.6 3.2 0.00 0.00 0.00 63 1006.8
20260504184516 20 225 4.8 6.4 0.00 0.00 0.00 62 1006.9
20260504183516 20 225 3.2 6.4 0.00 0.00 0.00 62 1007.0
20260504182516 20 225 4.8 9.7 0.00 0.00 0.00 60 1006.8
20260504181516 20 225 3.2 11.3 0.00 0.00 0.00 60 1006.8
20260504180516 20 248 6.4 9.7 0.00 0.00 0.00 60 1006.8
20260504175516 21 248 6.4 11.3 0.00 0.00 0.00 58 1006.5
20260504174516 21 225 6.4 9.7 0.00 0.00 0.00 58 1006.3
20260504173516 22 225 4.8 9.7 0.00 0.00 0.00 56 1006.1
20260504172516 22 225 6.4 11.3 0.00 0.00 0.00 59 1005.8
20260504171516 22 180 8.0 22.5 0.00 0.00 0.00 61 1006.0
20260504170556 21 203 4.8 8.0 0.00 0.00 0.00 61 1006.2
20260504150517 17 203 3.2 9.7 0.00 0.00 0.00 68 1007.2
20260504140517 16 203 3.2 8.0 0.00 0.00 0.00 67 1007.2
20260504130517 13 225 3.2 8.0 0.00 0.00 0.00 74 1007.7
20260504110517 11 0.0 0.0 0.00 0.00 0.00 72 1007.6